Location: Roland
(31.1349°N, 85.4372°W)
Time: 04:27:25
(UTC+00:00)

Courier 1B - Pass Details

Date: 23 April 2021
Orbit: 962 x 1209 km, 28.3° (Epoch: 07 May)

Event Time Altitude Azimuth Distance (km) Brightness Sun altitude
Rises 23:46:22 0° 259° (W) 3,634 12.0 5.3°
Reaches altitude 10° 23:51:33 10° 224° (SW) 2,706 10.3 4.2°
Maximum altitude 23:53:04 11° 211° (SSW) 2,654 10.1 3.9°
Drops below altitude 10° 23:54:36 10° 197° (SSW) 2,726 9.9 3.5°
Sets 23:59:56 0° 162° (SSE) 3,727 10.2 2.4°
